Weather History for San Antonio Stinson, TX

Change the Weather History Date:

Monday, November 12, 2012

  Actual Average Record
Temperature  
Mean Temperature 58 °F -  
Max Temperature 64 °F 70 °F 84 °F (2005)
Min Temperature 51 °F 51 °F 46 °F (2002)
Degree Days  
Heating Degree Days 8    
Growing Degree Days 8 (Base 50)    
Moisture  
Dew Point 27 °F    
Average Humidity 32    
Maximum Humidity 50    
Minimum Humidity 16    
Precipitation  
Precipitation 0.00 in - - ()
Sea Level Pressure  
Sea Level Pressure 30.36 in    
Wind  
Wind Speed 10 mph (NNE)    
Max Wind Speed 14 mph    
Max Gust Speed 23 mph    
Visibility 10 miles    
Events      
Averages and records for this station are not official NWS values.
T = Trace of Precipitation, MM = Missing Value Source: NWS Daily Summary

Daily Weather History Graph

Daily Weather History Graph

Search for Another Location

Airport:

Trip Planner

Search our weather history database for the weather conditions in past years. The results will help you decide how hot, cold, wet, or windy it might be!

Date:

Astronomy

Nov. 12, 2012 Rise Set
Actual Time 6:55 AM CST 5:40 PM CST
Civil Twilight 6:30 AM CST 6:05 PM CST
Nautical Twilight 6:02 AM CST 6:33 PM CST
Astronomical Twilight 5:33 AM CST 7:01 PM CST
Moon 5:26 AM CST (11/12) 4:44 PM CST (11/12)
Length of Visible Light 11h 34m
Length of Day
10h 44m
Waning Crescent, 2% of the Moon is Illuminated
Nov 12
Waning Crescent
Nov 13
New
Nov 20
First Quarter
Nov 28
Full
Dec 6
Last Quarter

Hourly Weather History & Observations

Time (CST) Temp. Dew Point Humidity Pressure Visibility Wind Dir Wind Speed Gust Speed Precip Events Conditions
12:53 AM 64.9 °F 27.0 °F 24% 30.17 in 10.0 mi North 8.1 mph - N/A   Scattered Clouds
1:53 AM 64.0 °F 16.0 °F 16% 30.18 in 10.0 mi NNE 12.7 mph 17.3 mph N/A   Mostly Cloudy
2:53 AM 63.0 °F 18.0 °F 18% 30.20 in 10.0 mi North 13.8 mph 23.0 mph N/A   Overcast
3:53 AM 62.1 °F 23.0 °F 22% 30.21 in 10.0 mi NNE 13.8 mph 19.6 mph N/A   Overcast
4:53 AM 61.0 °F 27.0 °F 27% 30.23 in 10.0 mi NNE 10.4 mph - N/A   Overcast
5:53 AM 57.9 °F 33.1 °F 39% 30.27 in 10.0 mi North 13.8 mph 19.6 mph N/A   Mostly Cloudy
6:53 AM 54.0 °F 35.1 °F 49% 30.32 in 10.0 mi NNE 11.5 mph 20.7 mph N/A   Mostly Cloudy
7:53 AM 52.0 °F 34.0 °F 50% 30.38 in 10.0 mi NNE 12.7 mph 19.6 mph N/A   Mostly Cloudy
8:53 AM 53.1 °F 33.1 °F 47% 30.41 in 10.0 mi NNE 10.4 mph 19.6 mph N/A   Overcast
9:53 AM 53.1 °F 33.1 °F 47% 30.44 in 10.0 mi Variable 6.9 mph 18.4 mph N/A   Overcast
10:53 AM 55.9 °F 30.0 °F 37% 30.45 in 10.0 mi NNE 12.7 mph 19.6 mph N/A   Mostly Cloudy
11:53 AM 57.9 °F 28.9 °F 33% 30.43 in 10.0 mi North 10.4 mph 18.4 mph N/A   Scattered Clouds
12:53 PM 61.0 °F 28.9 °F 30% 30.41 in 10.0 mi North 11.5 mph 20.7 mph N/A   Clear
1:53 PM 62.1 °F 27.0 °F 26% 30.38 in 10.0 mi North 8.1 mph 17.3 mph N/A   Clear
2:53 PM 63.0 °F 27.0 °F 26% 30.37 in 10.0 mi NNE 8.1 mph - N/A   Clear
3:53 PM 62.1 °F 24.1 °F 23% 30.37 in 10.0 mi ENE 13.8 mph - N/A   Clear
4:53 PM 61.0 °F 24.1 °F 24% 30.38 in 10.0 mi ENE 8.1 mph - N/A   Clear
5:53 PM 57.9 °F 24.1 °F 27% 30.40 in 10.0 mi ENE 5.8 mph - N/A   Clear
6:53 PM 55.0 °F 26.1 °F 33% 30.42 in 10.0 mi ENE 5.8 mph - N/A   Clear
7:53 PM 53.1 °F 26.1 °F 35% 30.44 in 10.0 mi NE 4.6 mph - N/A   Clear
8:53 PM 51.1 °F 26.1 °F 38% 30.45 in 10.0 mi NNE 4.6 mph - N/A   Clear
9:53 PM 53.1 °F 25.0 °F 34% 30.47 in 10.0 mi NE 6.9 mph - N/A   Overcast
10:53 PM 53.1 °F 24.1 °F 32% 30.47 in 10.0 mi NNE 9.2 mph - N/A   Overcast
11:53 PM 53.1 °F 23.0 °F 31% 30.46 in 10.0 mi NE 8.1 mph - N/A   Overcast